SCOUT G-1 R/B, 19072

Orbit data source: Space-Track

SCOUT G-1 R/B, 19072 is space debris in LEO originally from a launch on Tue, 26 Apr 1988 UTC launched from the Air Force Western Test Range (AFWTR). Debris objects in space refer to the collection of defunct objects orbiting the Earth. Examples of debris include non-operational satellites, rocket bodies, and fragments generated from explosions, collisions, or faulty payload assembly.

Loading next visibility...
Identifier
19072, 1988-033C
Orbit
LEO
Country
Flag of USUS
Related business
Manufacturer
Thiokol/TE
Mission
Spacecraft
Bus & Motor
STAR 20, Unknown motor
Mass
31 kg wet, 31 kg dry
Launch date (UTC)
1988-04-26 (38 years ago)
Launch vehicle
Unknown
Launch site
Air Force Western Test Range (AFWTR)
Object type
Payload
Rocket body
Debris
Shape & HBR
Cyl, 0.8 m
Radar Cross Section
0.687 m², Medium (>0.1 m² and < 1m²)

Expand to show TLE details & history
Last TLE update: 2 days ago

TLE from 2 days ago
0 SCOUT G-1 R/B
1 19072U 88033C   26171.36094670  .00000097  00000-0  17797-3 0  9993
2 19072  90.3270  22.1662 0189939  29.1295 143.1989 13.27497168847370
Epoch: 2026-06-20T08:39Z
TLE epoch observation values (Epoch: 2026-06-20T08:39:45.794Z)
Latitude
6.31606°
Longitude
163.68473°
Altitude
1,274.11 km
Speed
7.164 km/s
True Right ascension
13h 28m 48s
True Declination
6° 16' 52"
Sunlit
Object was in daylight at epoch
Visualization orbit readout
Latitude
Unknown
Longitude
Unknown
Altitude
Unknown
Speed
Unknown
Apparent Right ascension
Unknown
Apparent Declination
Unknown
Sunlit
N/A
Visualization observer readout
Local Sidereal Time
23:08:27
Azimuth
Unknown
Elevation
Unknown
Doppler factor
Unknown
Orbital elements
Apogee altitude
1,296.351 km
Perigee altitude
1,010.249 km
Semi-major axis
7,531.437 km
Eccentricity
0.01899
Inclination
90.327°
RAAN
22.1662°
Arg. of periapsis
29.1295°
True anomaly
144.47828°
Mean anomaly
143.1989°
Eccentric anomaly
143.84101°
Mean motion
3.32068 °/min
Orbital period
108.41 mins
BSTAR
0.00017797
Loading maneuver chart data...
Computing Atmospheric mass density...
Loading historical data...
Loading historical data...
Loading historical data...
Loading historical data...
Loading historical data...
Loading historical data...
Loading historical data...

Documentation

Showing up to 5 results
|